Preview of NWS' New Version of Forecast
This preview is not operational and should not be used for support decisions.

Regional Weather Roundup (RWR)

Issued by National Weather Service (NWS)

                            
000
ASUS42 KTBW 181915
RWRFL 
FLORIDA REGIONAL WEATHER ROUNDUP
NATIONAL WEATHER SERVICE TAMPA BAY RUSKIN FL
300 PM EDT TUE JUN 18 2019

NOTE: "FAIR" INDICATES FEW OR NO CLOUDS BELOW 12,000 FEET WITH NO
SIGNIFICANT WEATHER AND/OR OBSTRUCTIONS TO VISIBILITY.

FLZ001>010-012>015-112-114-115-182000-
PANHANDLE FLORIDA
  
CITY           SKY/WX    TMP DP  RH WIND       PRES   REMARKS
PENSACOLA      HVY RAIN  74  74 100 NW9       29.98R VSB 1/2          
PENSACOLA NAS  TSTM      74  73  97 NW8G17    29.97R FOG              
MILTON NAS     TSTM      72  72 100 W9        29.99S VSB 1            
CRESTVIEW      PTSUNNY   76  72  87 VRB5      30.00R                  
DUKE FIELD     LGT RAIN  78  75  92 W6        29.98S                  
VALPARAISO     LGT RAIN  76  72  89 SW7       29.97S                  
MARY ESTHER    LGT RAIN  78  73  85 CALM      29.95F                  
TRI COUNTY     FAIR      84  75  74 S10       29.98S                  
PANAMA CITY    CLOUDY    79  73  82 VRB6      29.97S                  
TYNDALL AFB    FAIR      87  77  72 SW15      29.96S HX  98           
APALACHICOLA   FAIR      88  75  65 SW15G22   29.97F HX  97           

STATION/POSITION SKY/WX   TEMP    WIND        PRES    WAVE   SWELL
                          AIR SEA DIR/SP/G            HT/PER HT/PER
                          (F)     (DEG/KT/KT) (MB)    (FT/S) (FT/S)
30.1N   87.6W                                   N/A     3/ 5
29.2N   88.2W                     210/ 16/ 17 1014.9F   4/ 5
PANAMA CITY BEAC NOT AVBL
TOWER C          NOT AVBL

$$
FLZ011-016>038-118-127-128-134-139-239-182000-
NORTH FLORIDA
  
CITY           SKY/WX    TMP DP  RH WIND       PRES   REMARKS
MARIANNA       FAIR      83  74  74 S7        29.95F                  
TALLAHASSEE    PTSUNNY   83  77  82 SW6       29.96F THUNDER          
PERRY          FAIR      89  75  63 SW10G16   29.97F HX  98           
LIVE OAK       MOSUNNY   88  73  62 CALM      29.96F HX  96           
CROSS CITY     FAIR      88  74  63 SW10      29.98S HX  97           
LAKE CITY      FAIR      88  72  58 W6        29.97F                  
GAINESVILLE    LGT RAIN  79  74  84 SW6       30.00F                  
PALATKA        PTSUNNY   84  75  74 W8        29.98F                  
MAYPORT NAS    PTSUNNY   87  75  67 SE12      29.97F HX  96           
JACKSONVILLE   PTSUNNY   89  69  51 VRB3      29.94F                  
JAX NAS        PTSUNNY   88  71  57 SE6       29.96F                  
JAX CECIL      PTSUNNY   93  72  49 VRB5      29.96F HX 100           
FERNANDINA BEA FAIR      86  76  72 SE12      29.96F HX  95           
ST AUGUSTINE   LGT RAIN  79  75  89 SE10      29.99F FOG              
PALM COAST     MOSUNNY   75  73  94 VRB7      29.99F                  

STATION/POSITION SKY/WX   TEMP    WIND        PRES    WAVE   SWELL
                          AIR SEA DIR/SP/G            HT/PER HT/PER
                          (F)     (DEG/KT/KT) (MB)    (FT/S) (FT/S)
SHELL POINT      NOT AVBL
KEATON BEACH               83     220/  9/ 11 1015.5F
CEDAR KEY                  84     250/  7/ 10 1015.9F
FERNANDINA       NOT AVBL
30.7N   81.3W                 84                N/A     2/ 5
MAYPORT          NOT AVBL
31.4N   80.9W              81 84  190/  8/  8 1015.1F   3/ 5   2/ 5
ST AUGUSTINE               76 81  120/ 10/ 11 1015.6F

$$
FLZ040-043>046-052-053-057-058-063-144-182000-
INTERIOR CENTRAL FLORIDA
  
CITY           SKY/WX    TMP DP  RH WIND       PRES   REMARKS
OCALA          FAIR      84  78  82 S6        30.01S HX  95           
LEESBURG       FAIR      77  74  90 CALM      30.01F                  
SANFORD        PTSUNNY   76  72  87 SW8       30.01F                  
ORLANDO EXEC   LGT RAIN  76  72  87 S6        30.02F                  
ORLANDO INTL   LGT RAIN  76  72  87 SW3       30.02F                  
KISSIMMEE      FAIR      77  74  90 SW8       30.03F                  
WINTER HAVEN   FAIR      79  73  82 SE3       30.03F                  
LAKELAND       MOSUNNY   81  75  83 CALM      30.03F                  
BARTOW         PTSUNNY   77  73  88 CALM      30.02F                  
SEBRING        LGT RAIN  75  74  95 SE3       30.04F FOG              
OKEECHOBEE     TSTM      75  72  88 W5        30.06R                  

$$
FLZ041-047-054-059-064-141-147-182000-
EAST CENTRAL FLORIDA
  
CITY           SKY/WX    TMP DP  RH WIND       PRES   REMARKS
ORMOND BEACH   MOSUNNY   75  75 100 CALM      30.00F                  
DAYTONA BEACH  PTSUNNY   76  76 100 SW3       30.00S                  
DELAND         FAIR      77  75  94 S6        30.00F                  
NEW SMYRNA BEA PTSUNNY   77  72  83 W6        30.03R                  
JFK SPACE CTR  HVY RAIN  80  67  62 W25G31    30.00R                  
TITUSVILLE     RAIN      84  72  65 NW12G23   30.02R                  
CAPE CANAVERAL FAIR      85  -4   3 SE16      29.97F                  
PATRICK AFB    FAIR      86  79  79 SE15      29.99F HX 101           
MELBOURNE      PTSUNNY   91  74  57 SW9       29.99F HX 100           
VERO BEACH     FAIR      92  72  51 S10G21    30.01F HX  99           
FT PIERCE      PTSUNNY   90  72  55 SW10G17   30.01F HX  97           
STUART         PTSUNNY   91  72  52 S12       30.03F HX  98           

STATION/POSITION SKY/WX   TEMP    WIND        PRES    WAVE   SWELL
                          AIR SEA DIR/SP/G            HT/PER HT/PER
                          (F)     (DEG/KT/KT) (MB)    (FT/S) (FT/S)
28.5N   80.2W              80 80  170/ 14/ 16 1016.3F   2/ 3   2/ 8
28.9N   78.5W              80 82  170/ 16/ 17   N/A     4/ 6   2/ 8
TRIDENT PIER     NOT AVBL
28.4N   80.5W                 78                N/A     2/ 4
27.5N   80.2W                 82                N/A     2/ 3

$$
FLZ050-056-061-142-242-148-248-149-249-151-251-155-255-
160-260-182000-
WEST CENTRAL FLORIDA
  
CITY           SKY/WX    TMP DP  RH WIND       PRES   REMARKS
CRYSTAL RIVER  PTSUNNY   86  75  70 SW12G17   30.01S HX  95           
INVERNESS      PTSUNNY   82  82 100 CALM      30.01F HX  97           
BROOKSVILLE    FAIR      88  74  63 W15G22    30.01F HX  96           
CLEARWATER AIR FAIR      86  72  62 SW9G16    30.02R                  
ST PETE CLEARW PTSUNNY   88  73  61 SW16G22   30.02S HX  95           
TAMPA INTL     FAIR      89  74  60 SW14      30.01F HX  98           
TAMPA EXEC     PTSUNNY   90  73  58 SW9       30.01S HX  98           
PLANT CITY       N/A    N/A N/A N/A MISG        N/A                   
MACDILL AFB    FAIR      88  77  69 S20       30.01F HX  99           
PETER O KNIGHT CLOUDY    86  79  79 SW17      30.01S HX  99           
ST PETERSBURG  PTSUNNY   86  74  67 SW12      30.00S                  
SARASOTA       FAIR      88  77  69 SW14      30.01F HX 100           
VENICE         FAIR      88  77  70 S14G22    30.04F HX 100           

STATION/POSITION SKY/WX   TEMP    WIND        PRES    WAVE   SWELL
                          AIR SEA DIR/SP/G            HT/PER HT/PER
                          (F)     (DEG/KT/KT) (MB)    (FT/S) (FT/S)
27.3N   84.2W                 83                N/A     2/ 5
CLEARWATER BEACH NOT AVBL
MIDDLE TAMPA BAY NOT AVBL
VENICE                     83 84  210/ 15/ 17 1017.3F

$$
FLZ066-069-070-075>078-162-262-165-265-182000-
SOUTHWEST FLORIDA AND KEYS
  
CITY           SKY/WX    TMP DP  RH WIND       PRES   REMARKS
PUNTA GORDA    FAIR      85  74  69 SW15      30.04F                  
FT MYERS       FAIR      89  73  59 S13G18    30.04S HX  97           
SOUTHWEST INTL FAIR      87  75  67 SW12      30.05F HX  96           
NAPLES         RAIN      75  32  20 S6        30.07S                  
IMMOKALEE      FAIR      81  73  78 SW8G15    30.04F                  
MARATHON       FAIR     N/A N/A N/A S10G16    30.05F                  
KEY WEST NAS   PTSUNNY   89  77  67 S12       30.05F HX 101           
KEY WEST INTL  FAIR      86  77  74 SE9       30.05F HX  97           

STATION/POSITION SKY/WX   TEMP    WIND        PRES    WAVE   SWELL
                          AIR SEA DIR/SP/G            HT/PER HT/PER
                          (F)     (DEG/KT/KT) (MB)    (FT/S) (FT/S)
NAPLES           NOT AVBL
DRY TORTUGAS               84     150/ 10/ 11 1017.4F
SAND KEY                   83                 1017.4F
SOMBRERO KEY               83                 1016.8F

$$
FLZ067-068-071>074-168-172>174-182000-
SOUTHEAST FLORIDA 
  
CITY           SKY/WX    TMP DP  RH WIND       PRES   REMARKS
W PALM BEACH   PTSUNNY   89  71  55 SW10      30.04S THUNDER HX  95   
BOCA RATON     MOSUNNY   88  75  66 S12       30.04S HX  97           
FT LAUDER-EXEC PTSUNNY   88  70  55 SE14      30.04S                  
FT LAUDERDALE  HVY RAIN  85  72  65 SW10      30.04R                  
POMPANO BEACH  PTSUNNY   87  69  54 S17       30.04S                  
PEMBROKE PINES FAIR      90  69  50 S14       30.06R                  
OPA LOCKA      PTSUNNY   87  69  54 S8        30.05F                  
MIAMI          PTSUNNY   89  68  49 S13G20    30.04F                  
WEST KENDALL   PTSUNNY   89  72  56 SW9G17    30.04F HX  96           
HOMESTEAD      PTSUNNY   88  75  65 S7        30.04F HX  98           

STATION/POSITION SKY/WX   TEMP    WIND        PRES    WAVE   SWELL
                          AIR SEA DIR/SP/G            HT/PER HT/PER
                          (F)     (DEG/KT/KT) (MB)    (FT/S) (FT/S)
SETTLEMENT POINT           81     200/ 17/ 19 1017.6F

$$